Hourly Data Report for January 09, 2022

ST. JOHN'S INTL A
NEWFOUNDLAND
Current Station Operator: NAVCAN

47°37'07.000" N
52°45'09.000" W
140.50 m
8403505
71801
YYT

Download Data

Hourly Data (January 2022)
Hourly Data Report for January 9, 2022
TIME
LST
Temp Definition
°C
Dew Point Definition
°C
Rel Hum Definition
%
Precip. Amount Definition
mm

Wind Dir Definition
10's deg

Wind Spd Definition
km/h
Visibility Definition
km
Stn Press Definition
kPa
Hmdx Definition


Wind Chill Definition


Weather Definition


00:30 -7.5 -11.1 75   31 45 24.1 99.61   -18 LegendNANA
01:30 -8.6 -12.4 74   32 37 24.1 99.88   -19 LegendNANA
02:30 -9.1 -12.5 76   32 39 24.1 99.99   -19 Mostly Cloudy
03:30 -9.4 -13.0 76   30 38 24.1 100.06   -20 LegendNANA
04:30 -9.6 -13.6 73   31 37 24.1 100.20   -20 LegendNANA
05:30 -9.7 -13.6 73   30 35 24.1 100.33   -20 Mainly Clear
06:30 -9.7 -13.7 73   31 36 24.1 100.41   -20 LegendNANA
07:30 -9.5 -13.2 74   31 36 24.1 100.48   -20 LegendNANA
08:30 -8.6 -12.4 74   31 29 24.1 100.66   -18 Mostly Cloudy
09:30 -8.3 -12.4 72   30 29 24.1 100.63   -17 LegendNANA
10:30 -7.3 -11.9 70   30 21 24.1 100.68   -15 LegendNANA
11:30 -6.5 -12.2 65   30 31 24.1 100.62   -15 Mainly Clear
12:30 -6.4 -11.8 66   30 28 24.1 100.53   -15 LegendNANA
13:30 -5.6 -11.9 61   30 32 24.1 100.49   -14 LegendNANA
14:30 -4.3 -10.6 62   29 27 24.1 100.45   -12 Mainly Clear
15:30 -4.4 -10.9 61   26 27 24.1 100.42   -12 LegendNANA
16:30 -4.8 -10.4 65   26 22 24.1 100.42   -12 LegendNANA
17:30 -4.1 -9.0 69   24 11 24.1 100.40   -9 Mostly Cloudy
18:30 -3.9 -7.8 74   23 14 24.1 100.35   -9 LegendNANA
19:30 -3.9 -7.0 79   19 16 24.1 100.25   -9 LegendNANA
20:30 -3.1 -6.7 77   20 16 24.1 100.15   -8 Snow
21:30 -2.4 -6.0 77   22 19 24.1 100.06   -8 LegendNANA
22:30 -2.3 -6.0 76   22 19 24.1 99.93   -8 LegendNANA
23:30 -2.4 -5.4 80   20 23 19.3 99.73   -9 Snow

Notes on Data Quality.

Legend

  • E = Estimated
  • M = Missing
  • NA = Not Available*
  • [empty] = Indicates an unobserved value
Date modified: